Regional Weather Roundup
Issued by NWS Newport/Morehead, NC

Current Version | Previous Version | Graphics & Text | Print | Product List | Glossary Off
Versions: 1 2 3 4 5 6 7 8 9 10 11 12 13 14 15 16 17 18 19 20 21 22 23 24 25 26 27 28 29 30 31 32 33 34 35 36 37 38 39 40 41 42 43 44 45 46 47 48 49 50
006 ASUS42 KMHX 180426 RWRMHX WEATHER ROUNDUP FOR EASTERN NORTH CAROLINA NATIONAL WEATHER SERVICE NEWPORT/MOREHEAD CITY NC 1100 PM EST SUN DEC 17 2017 NOTE: "FAIR" INDICATES FEW OR NO CLOUDS BELOW 12,000 FEET WITH NO SIGNIFICANT WEATHER AND/OR OBSTRUCTIONS TO VISIBILITY NCZ015>017-031-032-045>047-102-103-180500- NORTH COAST CITY SKY/WX TMP DP RH WIND PRES REMARKS EDENTON CLOUDY 48 42 81 S5 30.21F ELIZABETH CITY CLOUDY 46 43 89 SW6 30.21F KITTY HAWK CLOUDY 46 36 68 CALM 30.19S MANTEO CLOUDY 46 39 75 W3 30.21S $$ NCZ045>047-081-094-103-104-180500- CENTRAL COAST CITY SKY/WX TMP DP RH WIND PRES REMARKS FRISCO LGT RAIN 51 46 83 W6 30.22F $$ NCZ095-097-098-100-101-180500- SOUTHERN COAST CITY SKY/WX TMP DP RH WIND PRES REMARKS BEAUFORT CLOUDY 49 46 90 CALM 30.22F CEDAR ISLAND NOT AVBL JACKSONVILLE CLOUDY 49 49 100 S3 30.21F PINEY ISLAND N/A N/A N/A N/A CALM 30.22F WILMINGTON CLOUDY 53 48 83 CALM 30.22F $$ NCZ011>013-027>030-043-044-078>080-089-090>093-098-180500- COASTAL PLAIN CITY SKY/WX TMP DP RH WIND PRES REMARKS AHOSKIE CLOUDY 43 40 91 S5 30.20F CLINTON CLOUDY 50 42 72 CALM 30.22S ELIZABETHTOWN NOT AVBL GOLDSBORO CLOUDY 50 37 61 CALM 30.19F GREENVILLE MOCLDY 46 43 87 CALM 30.22S HAVELOCK CLOUDY 49 46 90 NE3 30.22F KENANSVILLE CLOUDY 50 43 76 CALM 30.22R KINSTON NOT AVBL NEW BERN CLOUDY 48 45 89 E3 30.22F RICHLANDS CLOUDY 50 47 89 CALM 30.22F ROCKY MOUNT CLOUDY 44 44 100 CALM 30.21S WASHINGTON CLOUDY 47 42 85 CALM 30.21F WHITEVILLE CLOUDY 53 45 75 CALM 30.21S $$ AMZ130-135-150-152-154-156-158-170-250-252-270-ANZ085-086-088-633-658-670-180500- MARINE OBSERVATIONS STATION/POSITION TIME TEMP WIND PRES WAVE SWELL AIR SEA DIR/SP/G HT/PER HT/PER (UTC) (F) (DEG/KT/KT) (MB) (FT/S) (FT/S) CHESAPEAKE LIGHT NOT AVBL 64 E VA BEACH 0350 54 58 260/ 16/ 19 1022.4 2/ 4 DUCK 0400 47 52 260/ 6/ 7 1022.0 2 E DUCK 0400 54 N/A 1/10 OREGON INLET 0400 47 45 230/ 6/ 7 1022.7 13E OREGON INLT 0348 56 N/A 1/11 2/11 HATTERAS CG 0400 51 52 290/ 8/ 13 1023.0 DIAMOND BUOY 0410 63 72 270/ 14/ 17 1022.6 CAPE LOOKOUT 0400 20/ 4/ 5 1023.1 BEAUFORT LAB 0400 50 50 20/ 2/ 2 1023.0 30 SE NEW RVR IN 0408 59 63 320/ 4/ 6 1023.2 30 SE NEW RVR IN 0400 63 N/A 1/ 9 27 SE WRIGHTSVLE 0408 58 61 350/ 4/ 6 1023.3 5 SE WRIGHTSVLE 0408 55 56 40/ 2/ 4 1023.1 225 S CAPE HAT 0350 68 74 220/ 8/ 12 1024.6 2/10 2/10 41 SE CHARLESTON 0410 71 73 210/ 14/ 16 1022.1 $$

USA.gov is the U.S. government's official web portal to all federal, state and local government web resources and services.